Location: Asheville, NC
(35.6000°N, 82.5500°W)
Time: 10:17:49
(UTC-04:00)

nSIGHT-1 - Pass Details

Date: 11 January 2018
Orbit: 382 x 389 km, 51.6° (Epoch: 23 April)

Event Time Altitude Azimuth Distance (km) Brightness Sun altitude
Exits shadow 05:04:13 - 43° (NE) 2,079 ? -31.1°
Enters shadow 06:00:42 -70° 277° (W) 12,366 ? -19.8°
Maximum altitude 06:38:58 18° 30° (NNE) 1,060 ? -12.3°
